FW9306 Weather Reports


Display with metric or nautical units.
time (UTC)temp
F
wind
direction
speed
MPH
gust
MPH
rain 1hr
in
rain 24hr
in
rain mn
in
humidity
%
barometer
mb
20260504231543 75 285 12.0 15.0 0.00 0.00 0.00 27 1012.7
20260504231039 75 164 12.0 14.0 0.00 0.00 0.00 27 1012.5
20260504230536 75 309 11.0 15.0 0.00 0.00 0.00 27 1012.2
20260504230035 75 272 14.0 16.0 0.00 0.00 0.00 27 1012.1
20260504225532 77 284 13.0 15.0 0.00 0.00 0.00 26 1012.0
20260504225029 77 324 14.0 18.0 0.00 0.00 0.00 23 1011.7
20260504224525 78 324 9.0 10.0 0.00 0.00 0.00 22 1011.8
20260504224023 78 257 11.0 11.0 0.00 0.00 0.00 23 1011.9
20260504223519 78 253 8.0 10.0 0.00 0.00 0.00 21 1011.9
20260504223015 78 268 8.0 11.0 0.00 0.00 0.00 22 1012.1
20260504222512 78 295 11.0 13.0 0.00 0.00 0.00 21 1012.1
20260504222010 78 277 9.0 11.0 0.00 0.00 0.00 21 1012.0
20260504221507 78 94 7.0 10.0 0.00 0.00 0.00 22 1012.5
20260504221003 80 222 14.0 17.0 0.00 0.00 0.00 19 1012.3
20260504220500 80 271 10.0 14.0 0.00 0.00 0.00 19 1012.2
20260504215957 80 307 14.0 17.0 0.00 0.00 0.00 20 1012.3
20260504215453 80 228 6.0 7.0 0.00 0.00 0.00 22 1012.2
20260504214950 80 285 13.0 14.0 0.00 0.00 0.00 22 1012.1
20260504214446 80 264 7.0 8.0 0.00 0.00 0.00 22 1012.2
20260504213943 80 303 12.0 13.0 0.00 0.00 0.00 22 1011.9
20260504213439 80 279 10.0 11.0 0.00 0.00 0.00 21 1012.1
20260504212937 80 80 11.0 13.0 0.00 0.00 0.00 21 1012.1
20260504212432 80 284 11.0 11.0 0.00 0.00 0.00 21 1012.1
20260504211931 80 313 5.0 7.0 0.00 0.00 0.00 20 1011.9
20260504211426 80 265 7.0 8.0 0.00 0.00 0.00 21 1012.1
20260504210924 80 284 7.0 9.0 0.00 0.00 0.00 21 1012.0
20260504210421 80 264 7.0 8.0 0.00 0.00 0.00 20 1012.0
20260504205918 80 346 7.0 9.0 0.00 0.00 0.00 21 1012.3
20260504205416 80 202 1.0 1.0 0.00 0.00 0.00 22 1012.4
20260504204914 80 248 6.0 7.0 0.00 0.00 0.00 21 1012.2
20260504204412 80 320 3.0 5.0 0.00 0.00 0.00 23 1012.3
20260504203911 80 301 3.0 3.0 0.00 0.00 0.00 22 1012.4
20260504203408 80 249 4.0 5.0 0.00 0.00 0.00 21 1012.4
20260504202903 79 334 5.0 6.0 0.00 0.00 0.00 22 1012.5
20260504202400 80 291 5.0 7.0 0.00 0.00 0.00 21 1012.4
20260504201857 80 294 4.0 5.0 0.00 0.00 0.00 21 1012.5
20260504201354 80 290 5.0 6.0 0.00 0.00 0.00 22 1012.8
20260504200852 80 344 4.0 5.0 0.00 0.00 0.00 23 1012.7
20260504200348 79 233 5.0 6.0 0.00 0.00 0.00 23 1012.5
20260504195845 79 290 7.0 9.0 0.00 0.00 0.00 22 1012.5
20260504195340 79 307 3.0 3.0 0.00 0.00 0.00 23 1012.4
20260504194837 78 128 8.0 9.0 0.00 0.00 0.00 23 1012.3
20260504194333 79 228 6.0 7.0 0.00 0.00 0.00 22 1012.3
20260504193829 79 322 7.0 7.0 0.00 0.00 0.00 23 1012.5
20260504193327 79 266 5.0 6.0 0.00 0.00 0.00 23 1012.4
20260504192826 78 227 7.0 7.0 0.00 0.00 0.00 22 1012.8
20260504192323 79 221 11.0 13.0 0.00 0.00 0.00 22 1012.7
20260504191821 78 327 6.0 7.0 0.00 0.00 0.00 22 1013.0
20260504191319 78 251 8.0 9.0 0.00 0.00 0.00 23 1012.8
20260504190814 78 218 9.0 9.0 0.00 0.00 0.00 23 1012.8
20260504190310 78 135 2.0 2.0 0.00 0.00 0.00 26 1012.9
20260504185807 78 14 2.0 2.0 0.00 0.00 0.00 26 1012.8
20260504185305 78 338 2.0 2.0 0.00 0.00 0.00 26 1012.9
20260504184800 78 132 2.0 2.0 0.00 0.00 0.00 25 1013.2
20260504184256 77 181 3.0 3.0 0.00 0.00 0.00 26 1013.1
20260504183752 77 224 2.0 2.0 0.00 0.00 0.00 27 1013.2
20260504183249 77 206 9.0 10.0 0.00 0.00 0.00 27 1013.3
20260504182747 76 275 6.0 6.0 0.00 0.00 0.00 27 1013.2
20260504182244 76 256 8.0 10.0 0.00 0.00 0.00 27 1013.3
20260504181742 76 268 6.0 7.0 0.00 0.00 0.00 28 1013.5
20260504181239 76 242 5.0 5.0 0.00 0.00 0.00 28 1013.6
20260504180738 75 242 4.0 6.0 0.00 0.00 0.00 28 1013.7
20260504180236 75 264 6.0 7.0 0.00 0.00 0.00 29 1013.6
20260504175733 75 219 9.0 10.0 0.00 0.00 0.00 29 1013.4
20260504175230 75 244 7.0 8.0 0.00 0.00 0.00 29 1013.6
20260504174728 75 220 10.0 11.0 0.00 0.00 0.00 28 1013.5
20260504174226 75 252 7.0 8.0 0.00 0.00 0.00 29 1013.6
20260504173721 75 236 7.0 8.0 0.00 0.00 0.00 29 1013.8
20260504173219 74 216 11.0 15.0 0.00 0.00 0.00 28 1013.6
20260504172715 75 236 7.0 10.0 0.00 0.00 0.00 29 1013.6
20260504172212 74 288 8.0 9.0 0.00 0.00 0.00 28 1013.7
20260504171708 74 270 9.0 10.0 0.00 0.00 0.00 28 1013.8
20260504171206 74 258 10.0 11.0 0.00 0.00 0.00 28 1013.6
20260504170702 74 260 8.0 9.0 0.00 0.00 0.00 29 1013.7
20260504170200 75 270 9.0 10.0 0.00 0.00 0.00 29 1013.6
20260504160118 74 226 11.0 15.0 0.00 0.00 0.00 31 1013.7
20260504151045 73 207 7.0 7.0 0.00 0.00 0.00 34 1013.5
20260504150543 73 226 7.0 8.0 0.00 0.00 0.00 34 1013.3
20260504141008 71 142 0.0 1.0 0.00 0.00 0.00 35 1013.4
20260504140505 71 209 1.0 1.0 0.00 0.00 0.00 36 1013.6
20260504130429 68 339 1.0 1.0 0.00 0.00 0.00 39 1012.7
20260504110317 66 194 0.0 1.0 0.00 0.00 0.00 43 1012.2
20260504100234 66 35 1.0 1.0 0.00 0.00 0.00 39 1012.1
20260504081628 66 109 2.0 2.0 0.00 0.00 0.00 36 1011.8
20260504081123 68 210 1.0 1.0 0.00 0.00 0.00 35 1012.0
20260504080620 68 235 1.0 1.0 0.00 0.00 0.00 35 1012.1
20260504080117 68 164 1.0 1.0 0.00 0.00 0.00 34 1012.1
20260504050433 74 95 3.0 3.0 0.00 0.00 0.00 28 1012.3
20260504045930 75 208 3.0 3.0 0.00 0.00 0.00 28 1012.4
20260504045426 75 275 3.0 5.0 0.00 0.00 0.00 28 1012.7
20260504044922 75 264 4.0 5.0 0.00 0.00 0.00 28 1012.7
20260504044420 75 242 6.0 6.0 0.00 0.00 0.00 27 1012.8
20260504043917 75 255 5.0 6.0 0.00 0.00 0.00 27 1012.8
20260504043414 75 245 7.0 9.0 0.00 0.00 0.00 27 1012.5
20260504042911 75 248 7.0 8.0 0.00 0.00 0.00 27 1012.4
20260504042408 76 232 8.0 9.0 0.00 0.00 0.00 26 1012.4
20260504041904 76 248 7.0 8.0 0.00 0.00 0.00 26 1012.4
20260504041400 76 266 12.0 13.0 0.00 0.00 0.00 26 1012.2
20260504040856 76 252 9.0 10.0 0.00 0.00 0.00 26 1012.3
20260504040354 76 276 9.0 13.0 0.00 0.00 0.00 26 1012.1
20260504035850 76 263 10.0 13.0 0.00 0.00 0.00 25 1012.0
20260504035348 76 241 5.0 6.0 0.00 0.00 0.00 24 1011.8
20260504034844 76 279 7.0 7.0 0.00 0.00 0.00 23 1011.7
20260504034342 77 236 7.0 8.0 0.00 0.00 0.00 23 1011.8
20260504033838 77 232 5.0 6.0 0.00 0.00 0.00 23 1011.1
20260504033337 77 245 7.0 9.0 0.00 0.00 0.00 22 1011.5
20260504032833 77 247 6.0 7.0 0.00 0.00 0.00 22 1011.5
20260504032330 77 262 10.0 11.0 0.00 0.00 0.00 22 1011.5
20260504031827 78 242 8.0 10.0 0.00 0.00 0.00 22 1011.5
20260504031324 78 219 10.0 10.0 0.00 0.00 0.00 21 1010.8
20260504030820 78 236 8.0 10.0 0.00 0.00 0.00 21 1010.8
20260504030318 78 260 6.0 8.0 0.00 0.00 0.00 21 1010.9
20260504025814 78 235 7.0 9.0 0.00 0.00 0.00 21 1010.6
20260504025311 79 256 6.0 7.0 0.00 0.00 0.00 20 1010.6
20260504024808 79 250 9.0 10.0 0.00 0.00 0.00 19 1010.6
20260504024304 79 240 7.0 8.0 0.00 0.00 0.00 19 1010.3
20260504023801 79 214 7.0 8.0 0.00 0.00 0.00 19 1010.2
20260504023257 80 198 7.0 8.0 0.00 0.00 0.00 19 1010.3
20260504022753 80 256 9.0 9.0 0.00 0.00 0.00 18 1009.9
20260504022250 80 229 10.0 13.0 0.00 0.00 0.00 18 1009.9
20260504021747 81 270 9.0 10.0 0.00 0.00 0.00 17 1009.7
20260504021244 82 240 7.0 8.0 0.00 0.00 0.00 16 1010.1
20260504020741 81 259 7.0 7.0 0.00 0.00 0.00 16 1009.7
20260504020237 82 246 8.0 9.0 0.00 0.00 0.00 16 1009.6
20260504015733 82 260 7.0 8.0 0.00 0.00 0.00 16 1009.5
20260504015230 82 248 9.0 10.0 0.00 0.00 0.00 16 1009.3
20260504014726 82 228 8.0 9.0 0.00 0.00 0.00 16 1009.5
20260504014223 82 261 13.0 14.0 0.00 0.00 0.00 16 1009.5
20260504013721 83 211 11.0 14.0 0.00 0.00 0.00 16 1009.4
20260504013218 83 241 9.0 11.0 0.00 0.00 0.00 16 1009.2
20260504012714 83 227 9.0 11.0 0.00 0.00 0.00 16 1009.4
20260504012212 83 228 11.0 15.0 0.00 0.00 0.00 16 1009.0
20260504011709 84 286 15.0 17.0 0.00 0.00 0.00 15 1009.0
20260504011206 84 266 12.0 15.0 0.00 0.00 0.00 16 1009.4
20260504010702 84 258 12.0 14.0 0.00 0.00 0.00 15 1009.4
20260504010157 84 259 16.0 21.0 0.00 0.00 0.00 15 1009.4
20260504005654 84 238 13.0 16.0 0.00 0.00 0.00 15 1009.5
20260504005151 84 219 12.0 13.0 0.00 0.00 0.00 15 1009.2
20260504004649 84 217 15.0 18.0 0.00 0.00 0.00 15 1009.6
20260504004146 84 247 16.0 18.0 0.00 0.00 0.00 15 1009.5
20260504003642 85 270 13.0 15.0 0.00 0.00 0.00 16 1009.5
20260504003139 85 215 14.0 16.0 0.00 0.00 0.00 15 1009.5
20260504002636 85 249 16.0 17.0 0.00 0.00 0.00 15 1009.3
20260504002134 85 243 15.0 17.0 0.00 0.00 0.00 16 1009.3
20260504001631 86 246 11.0 11.0 0.00 0.00 0.00 15 1009.3
20260504001127 86 226 15.0 21.0 0.00 0.00 0.00 15 1009.2
20260504000625 86 250 17.0 20.0 0.00 0.00 0.00 15 1009.3
20260504000122 86 253 18.0 20.0 0.00 0.00 0.00 15 1009.3
20260503235620 87 239 17.0 20.0 0.00 0.00 0.00 16 1009.4
20260503235116 86 234 18.0 23.0 0.00 0.00 0.00 16 1009.2
20260503234614 87 231 15.0 17.0 0.00 0.00 0.00 16 1009.2
20260503234112 87 226 11.0 13.0 0.00 0.00 0.00 15 1009.2
20260503233609 87 247 13.0 15.0 0.00 0.00 0.00 16 1008.9
20260503233104 87 223 14.0 18.0 0.00 0.00 0.00 16 1009.1
20260503232602 88 249 10.0 11.0 0.00 0.00 0.00 16 1009.1
20260503232059 87 227 14.0 17.0 0.00 0.00 0.00 17 1009.3